Aérodrome :
LOGIN :

S'inscrire | Disclaimer

   EN    FR    IT 

 










Légende :    VFR   VFR Marginal   IFR   IFR Intensif   IFR Très Intensif
Visi : 
Plafond : 
>= 8 km
>= 3000ft
5 à 8 km
1000 à 3000 ft
1500m à 5 km
500 à 1000 ft
800 à 1500m
200 à 500 ft
< 800m
< 200 ft
Symboles :   Orages  Brouillard  Fortes neiges  Fortes précipitations  Vent > 20 kt
SIGMETs :   Divers  Orages  Givrage  Turbulence  Onde Orograph.  Cendres Volcan.







- Altitude de l'aérodrome : 26 ft


ETNT - Wittmundhaven AB

DERNIER METAR :
  • 142220Z 22010KT 8000 BKN007 03/01 Q0988 GRN

METARs EXPIRÉS :
  • 142120Z 23012KT 8000 BKN008 03/02 Q0988 GRN
  • 142020Z 22012KT 8000 BKN008 BKN042 03/02 Q0988 GRN
  • 141948Z 22012KT 9000 SCT008 BKN042 03/02 Q0988 BLU

TAF TAF ETNT
Valide du 14 à 21h jusqu'au 15 à 06h UTC


142000Z 1421/1506 22012KT 9999 NSW SCT010 BKN040
TEMPO 1421/1424 24015G25KT 4000 -SHRA BKN008 BKN020TCU
TEMPO 1500/1506 21020KT 3000 BR BKN005 BY ETGL
Pas de NOTAMs connus pour ce terrain.



MET'MAP, la Météo Aéronautique d'un coup d'oeil ! - Copyright ORBIFLY Décembre 2007 - Disclaimer

ORBIFLY MET'MAP TEAM :

Programmation & Développement : Alexandra Zaïnal
Conception & Développement : Baudouin d'Aumeries
Co-Programmation & Développement : Marc-Olivier Méhu
Soutien technique & logistique : Manuel Goepfert

Contact : metmap@orbifly.com




SOURCES & CREDITS :

   NOAA